Weather History for Danbury, CT

Change the Weather History Date:

Friday, December 7, 2012

  Actual Average Record
Temperature  
Mean Temperature 29 °F -  
Max Temperature 39 °F 44 °F 73 °F (1998)
Min Temperature 19 °F 26 °F 3 °F (1964)
Degree Days  
Heating Degree Days 36    
Moisture  
Dew Point 30 °F    
Average Humidity 89    
Maximum Humidity 100    
Minimum Humidity 70    
Precipitation  
Precipitation 0.09 in - - ()
Sea Level Pressure  
Sea Level Pressure 30.16 in    
Wind  
Wind Speed 1 mph (SE)    
Max Wind Speed 6 mph    
Max Gust Speed -    
Visibility 6 miles    
Events Rain    
Averages and records for this station are not official NWS values.
T = Trace of Precipitation, MM = Missing Value Source: NWS Daily Summary

Daily Weather History Graph

Daily Weather History Graph

Search for Another Location

Airport:

Trip Planner

Search our weather history database for the weather conditions in past years. The results will help you decide how hot, cold, wet, or windy it might be!

Date:

Astronomy

Dec. 07, 2012 Rise Set
Actual Time 7:06 AM EST 4:24 PM EST
Civil Twilight 6:35 AM EST 4:55 PM EST
Nautical Twilight 6:01 AM EST 5:30 PM EST
Astronomical Twilight 5:27 AM EST 6:03 PM EST
Moon 12:19 AM EST (12/7) 12:23 PM EST (12/7)
Length of Visible Light 10h 19m
Length of Day
9h 17m
Last Quarter, 39% of the Moon is Illuminated
Dec 7
Last Quarter
Dec 13
New
Dec 20
First Quarter
Dec 28
Full
Jan 4
Last Quarter

Hourly Weather History & Observations

Time (EST) Temp. Windchill Dew Point Humidity Pressure Visibility Wind Dir Wind Speed Gust Speed Precip Events Conditions
12:53 AM 21.0 °F - 17.1 °F 85% 30.29 in 10.0 mi Calm Calm - N/A   Clear
1:53 AM 21.9 °F - 18.0 °F 85% 30.29 in 10.0 mi Calm Calm - N/A   Clear
2:53 AM 21.9 °F - 18.0 °F 85% 30.28 in 10.0 mi Calm Calm - N/A   Clear
3:53 AM 21.9 °F - 19.0 °F 89% 30.25 in 10.0 mi Calm Calm - N/A   Clear
4:53 AM 19.9 °F - 17.1 °F 89% 30.25 in 10.0 mi Calm Calm - N/A   Clear
5:27 AM 21.2 °F - 19.4 °F 93% 30.23 in 10.0 mi Calm Calm - N/A   Mostly Cloudy
5:53 AM 23.0 °F - 19.0 °F 85% 30.23 in 10.0 mi Calm Calm - N/A   Mostly Cloudy
6:53 AM 25.0 °F - 21.9 °F 88% 30.24 in 9.0 mi Calm Calm - N/A   Overcast
7:53 AM 26.1 °F - 21.9 °F 84% 30.24 in 7.0 mi Calm Calm - N/A   Overcast
8:11 AM 26.6 °F - 21.2 °F 80% 30.22 in 7.0 mi Calm Calm - N/A   Scattered Clouds
8:53 AM 28.9 °F - 24.1 °F 82% 30.25 in 8.0 mi Calm Calm - N/A   Overcast
9:53 AM 33.1 °F 30.0 °F 25.0 °F 72% 30.22 in 8.0 mi North 3.5 mph - N/A   Overcast
10:53 AM 36.0 °F - 27.0 °F 70% 30.20 in 9.0 mi Calm Calm - N/A   Overcast
11:13 AM 37.4 °F - 28.4 °F 70% 30.17 in 9.0 mi Calm Calm - N/A   Overcast
11:53 AM 39.0 °F - 30.9 °F 73% 30.17 in 7.0 mi Calm Calm - 0.00 in Rain Light Rain
12:32 PM 37.4 °F - 35.6 °F 93% 30.15 in 4.0 mi Calm Calm - 0.01 in Rain Light Rain
12:50 PM 39.2 °F - 35.6 °F 87% 30.14 in 2.5 mi Calm Calm - 0.03 in Rain Rain
12:53 PM 39.0 °F - 36.0 °F 89% 30.15 in 3.0 mi Calm Calm - 0.04 in Rain Light Rain
1:53 PM 39.0 °F 34.8 °F 37.0 °F 93% 30.12 in 5.0 mi SE 5.8 mph - N/A Rain Light Rain
2:02 PM 39.2 °F 35.9 °F 37.4 °F 93% 30.11 in 7.0 mi SE 4.6 mph - 0.00 in   Overcast
2:53 PM 39.9 °F 36.7 °F 37.9 °F 93% 30.11 in 5.0 mi SE 4.6 mph - 0.00 in   Overcast
3:27 PM 39.2 °F 35.9 °F 37.4 °F 93% 30.09 in 4.0 mi SE 4.6 mph - 0.00 in Rain Light Rain
3:53 PM 39.9 °F - 37.9 °F 93% 30.11 in 5.0 mi Calm Calm - 0.00 in   Overcast
4:53 PM 39.9 °F 36.7 °F 37.9 °F 93% 30.09 in 3.0 mi SE 4.6 mph - 0.03 in Rain Light Rain
5:53 PM 39.9 °F - 39.0 °F 97% 30.09 in 4.0 mi Calm Calm - 0.00 in   Overcast
6:53 PM 39.0 °F - 37.9 °F 96% 30.09 in 4.0 mi Calm Calm - 0.01 in Rain Light Rain
7:53 PM 39.0 °F - 37.0 °F 93% 30.09 in 4.0 mi Calm Calm - 0.00 in   Overcast
8:13 PM 39.2 °F - 37.4 °F 93% 30.08 in 4.0 mi Calm Calm - 0.00 in Rain Light Rain
8:53 PM 39.0 °F - 37.9 °F 96% 30.09 in 3.0 mi Calm Calm - 0.01 in Rain Light Rain
9:53 PM 39.9 °F - 37.9 °F 93% 30.08 in 4.0 mi Calm Calm - 0.00 in   Overcast
10:53 PM 39.0 °F - 39.0 °F 100% 30.06 in 5.0 mi Calm Calm - 0.00 in   Overcast
11:48 PM 39.2 °F - 39.2 °F 100% 30.04 in 4.0 mi Calm Calm - N/A   Overcast
11:53 PM 39.0 °F - 37.9 °F 96% 30.04 in 4.0 mi Calm Calm - N/A   Overcast